Regional Weather Roundup
Issued by NWS Jackson, KY

Home | Current Version | Previous Version | Text Only | Print | Product List | Glossary Off
Versions: 1 2 3 4 5 6 7 8 9 10 11 12 13 14 15 16 17 18 19 20 21 22 23 24 25 26 27

000
ASUS43 KJKL 221310
RWRJKL

EAST KENTUCKY HOURLY WEATHER ROUNDUP
NATIONAL WEATHER SERVICE JACKSON KY
900 AM EDT FRI SEP 22 2017

NOTE: "FAIR" INDICATES FEW OR NO CLOUDS BELOW 12,000 FEET WITH
NO SIGNIFICANT WEATHER AND/OR OBSTRUCTIONS TO VISIBILITY.

* THESE REPORTS ARE NOT UNDER NWS QUALITY CONTROL AND MAY NOT
  REPORT WEATHER SUCH AS PRECIPITATION AND FOG.

KYZ079-080-083-085-087-088-110-112-115-119-120-221400
...EASTERN KENTUCKY...

CITY           SKY/WX    TMP DP  RH WIND       PRES   REMARKS
JACKSON        SUNNY     69  66  90 CALM      30.14S
LONDON         SUNNY     68  65  90 NE3       30.13S
SOMERSET*      SUNNY     64  64 100 CALM      30.14S
MONTICELLO*    FOG       66  66 100 NW8       30.14S VSB 3/4
WILLIAMSBURG*  CLOUDY    63  63 100 CALM      30.13S VSB<1/4
MIDDLESBORO*   CLOUDY    63  63 100 CALM      30.16R FOG
HARLAN APT*    CLOUDY    63  63 100 CALM      30.16S VSB 1/2
PIKE CO APT*   FOG       64  64 100 CALM      30.15R VSB<1/4
BIG SANDY APT* FOG       65  65 100 CALM      30.15R VSB 1/4
MOREHEAD APT*  SUNNY     68  66  94 CALM      30.15S
$$

KYZ035-036-041-042-044-050-067-078-099-221400
...CENTRAL KENTUCKY...

CITY           SKY/WX    TMP DP  RH WIND       PRES   REMARKS
MT STERLING*   SUNNY     68  66  94 CALM      30.15S
FLEMING/MASON* SUNNY     66  66 100 CALM      30.15S FOG
DANVILLE*      SUNNY     68  64  88 CALM      30.14S
LEXINGTON      SUNNY     72  67  84 NE3       30.13S HAZE
FRANKFORT      SUNNY     72  67  84 CALM      30.12R
LOUISVILLE     MOSUNNY   76  70  82 CALM      30.10S HAZE
LEBANON*         N/A     68  66  94 CALM      30.13R FOG
GLASGOW*       SUNNY    N/A N/A N/A CALM      30.11S
BOWLING GREEN  SUNNY     71  70  96 CALM      30.10R
$$

KYZ091>093-OHZ055-061-077-WVZ005-015-034-035-042-221400
...SOUTHERN OHIO/WEST VIRGINIA...

CITY           SKY/WX    TMP DP  RH WIND       PRES   REMARKS
COVINGTON      MOSUNNY   74  71  91 CALM      30.13R
COLUMBUS       MOSUNNY   71  67  87 CALM      30.13S
DAYTON         MOSUNNY   73  68  84 S3        30.14S
WILMINGTON     PTSUNNY   71  69  93 CALM      30.14R
HUNTINGTON     FOG       66  65  96 CALM      30.13R VSB 1/2
CHARLESTON     FOG       63  62  97 CALM      30.13F VSB 1/4
PINEVILLE*     FOG       63  62  97 MISG      30.22S VSB 1/4
BECKLEY        SUNNY     66  63  90 SE3       30.19S
BLUEFIELD      SUNNY     63  61  93 CALM      30.22R FOG
LOGAN CO APT*  FOG       63  63 100 CALM      30.15S VSB<1/4
$$

VAZ002-007-008-TNZ017-027-036-066-071-221400
...SOUTHWEST VIRGINIA/EAST TENNESSEE...

CITY           SKY/WX    TMP DP  RH WIND       PRES   REMARKS
WISE*          SUNNY     70  68  94 CALM      30.22R
JONESVILLE*      N/A     64  63  94 CALM      30.17S
ABINGDON*      MOSUNNY   69  67  93 E3        30.18R
BRISTOL        MOSUNNY   65  63  93 CALM      30.16R
MORRISTOWN*    SUNNY     70  64  83 E5        30.13R
SEVIERVILLE*   SUNNY     64  61  88 CALM      30.12R
KNOXVILLE      MOSUNNY   68  64  87 CALM      30.11R
LAFOLLETTE*    SUNNY     64  64 100 CALM      30.17R
OAK RIDGE      SUNNY     69  65  86 CALM      30.13R
CROSSVILLE     SUNNY     67  65  93 CALM      30.15S FOG
NASHVILLE      SUNNY     70  68  93 CALM      30.09R
$$

...KEY TO REMARKS...
VSB - VISIBILITY IN MILES
WCI - WIND CHILL INDEX
HX  - HEAT INDEX

$$




USA.gov is the U.S. government's official web portal to all federal, state and local government web resources and services.